K5RG-3 Weather Reports


time (UTC)temp
F
wind
direction
speed
knots
gust
knots
rain 1hr
in
rain 24hr
in
rain mn
in
humidity
%
barometer
mb
20260903080035 84 200 0.0 0.9 0.00 0.00 0.00 87 1011.2
20260903074533 84 80 0.0 1.7 0.00 0.00 0.00 86 1011.2
20260903073036 84 192 0.0 1.7 0.00 0.00 0.00 86 1011.2
20260903071531 84 172 0.0 1.7 0.00 0.00 0.00 86 1011.3
20260903070029 84 146 0.0 2.6 0.00 0.00 0.00 85 1011.4
20260903064528 84 169 0.0 0.9 0.00 0.00 0.00 86 1011.8
20260903063024 84 150 0.0 0.9 0.00 0.00 0.00 86 1011.9
20260903061536 84 225 0.0 0.9 0.00 0.00 0.00 86 1012.1
20260903060021 84 225 0.0 0.0 0.00 0.00 0.00 86 1012.3
20260903054521 85 225 0.0 1.7 0.00 0.00 0.00 85 1012.3
20260903053019 85 156 0.0 0.0 0.00 0.00 0.00 84 1012.2
20260903051518 85 156 0.0 0.0 0.00 0.00 0.00 84 1012.3
20260903050019 85 156 0.0 0.0 0.00 0.00 0.00 84 1012.3
20260903044516 85 156 0.0 0.0 0.00 0.00 0.00 83 1012.5
20260903043017 85 156 0.0 0.0 0.00 0.00 0.00 83 1012.5
20260903041526 85 156 0.0 1.7 0.00 0.00 0.00 83 1012.3
20260903040015 85 159 0.0 0.9 0.00 0.00 0.00 83 1012.7
20260903034515 85 118 0.0 0.9 0.00 0.00 0.00 83 1012.2
20260903033017 85 146 0.0 0.9 0.00 0.00 0.00 83 1012.4
20260903031522 85 69 0.0 0.0 0.00 0.00 0.00 83 1012.4
20260903030016 85 140 0.0 1.7 0.00 0.00 0.00 83 1012.0
20260903024513 85 163 0.0 1.7 0.00 0.00 0.00 84 1011.8
20260903023012 85 150 0.0 0.0 0.00 0.00 0.00 84 1011.6
20260903021516 85 156 0.0 1.7 0.00 0.00 0.00 85 1011.4
20260903020030 85 138 0.0 1.7 0.00 0.00 0.00 85 1011.4
20260903014511 85 163 0.0 1.7 0.00 0.00 0.00 84 1011.4
20260903013011 86 176 0.0 1.7 0.00 0.00 0.00 84 1011.3
20260903011510 86 162 0.0 0.9 0.00 0.00 0.00 84 1011.1
20260903010012 86 147 0.0 1.7 0.00 0.00 0.00 83 1010.8
20260903004511 86 157 0.0 1.7 0.00 0.00 0.00 82 1011.1
20260903003009 87 154 0.0 2.6 0.00 0.00 0.00 81 1011.0
20260903001509 87 150 0.9 3.5 0.00 0.00 0.00 79 1010.3
20260903000008 88 135 0.0 3.5 0.00 0.00 0.00 78 1010.3
20260902234507 88 147 0.0 4.3 0.00 0.00 0.00 76 1010.4
20260902233007 89 173 0.0 4.3 0.00 0.00 0.00 75 1010.4
20260902231506 90 150 0.9 4.3 0.00 0.00 0.00 73 1010.4
20260902230006 90 136 0.9 4.3 0.00 0.00 0.00 72 1010.3
20260902224506 91 144 0.0 7.0 0.00 0.00 0.00 72 1010.3
20260902223007 92 171 1.7 7.8 0.00 0.00 0.00 71 1010.2
20260902221510 93 160 1.7 9.6 0.00 0.00 0.00 69 1010.2
20260902220003 92 145 0.9 3.5 0.00 0.00 0.00 71 1010.2
20260902214509 92 156 0.9 2.6 0.00 0.00 0.00 72 1010.2
20260902213002 91 125 0.0 4.3 0.00 0.00 0.00 73 1010.3
20260902211501 91 132 0.9 4.3 0.00 0.00 0.00 73 1010.5
20260902210100 91 137 0.9 3.5 0.00 0.00 0.00 72 1010.5
20260902204600 93 192 0.9 2.6 0.00 0.00 0.00 71 1010.5
20260902203058 95 160 0.0 5.2 0.00 0.00 0.00 67 1010.7
20260902201558 95 144 0.9 7.8 0.00 0.00 0.00 64 1011.0
20260902200048 95 144 1.7 4.3 0.00 0.00 0.00 66 1011.1
20260902194551 94 146 2.6 7.0 0.00 0.01 0.00 67 1011.3
20260902193038 94 231 1.7 8.7 0.00 0.01 0.00 68 1011.5
20260902191535 94 200 1.7 7.0 0.00 0.01 0.00 66 1011.6
20260902190031 95 249 3.5 8.7 0.00 0.01 0.00 66 1011.7
20260902184529 95 207 0.9 10.4 0.00 0.01 0.00 66 1011.9
20260902183022 94 113 2.6 11.3 0.00 0.01 0.00 67 1012.0
20260902181518 93 273 0.9 9.6 0.00 0.01 0.00 69 1012.3
20260902180013 92 281 1.7 10.4 0.00 0.02 0.00 71 1012.6
20260902174512 92 292 2.6 9.6 0.00 0.02 0.00 72 1012.8
20260902173008 91 231 2.6 11.3 0.00 0.02 0.00 74 1012.9
20260902171604 91 229 2.6 11.3 0.00 0.02 0.00 75 1013.1
20260902170058 90 265 6.1 13.0 0.00 0.02 0.00 76 1013.4
20260902164554 89 296 2.6 10.4 0.00 0.02 0.00 78 1013.6
20260902163050 89 292 2.6 11.3 0.00 0.02 0.00 80 1013.7
20260902161553 88 308 2.6 10.4 0.00 0.02 0.00 80 1013.7
20260902154545 87 253 5.2 12.2 0.00 0.02 0.00 84 1013.6
20260902153044 86 265 2.6 10.4 0.00 0.02 0.00 85 1013.5
20260902151540 85 250 1.7 6.1 0.00 0.02 0.00 86 1013.3
20260902150032 84 233 1.7 7.8 0.00 0.02 0.00 86 1013.3
20260902144527 82 254 1.7 3.5 0.00 0.02 0.00 86 1013.3
20260902143023 82 244 0.9 3.5 0.00 0.02 0.00 87 1013.2
20260902141519 81 198 0.0 0.9 0.00 0.02 0.00 86 1013.3
20260902140017 80 182 0.0 1.7 0.00 0.02 0.00 86 1013.2
20260902134524 80 211 0.0 0.9 0.00 0.02 0.00 86 1013.2
20260902133011 80 240 0.0 1.7 0.00 0.02 0.00 86 1013.2
20260902131507 80 178 0.0 1.7 0.00 0.02 0.00 85 1013.0
20260902130004 80 154 0.0 2.6 0.00 0.02 0.00 85 1012.8
20260902124502 79 222 0.0 1.7 0.00 0.02 0.00 85 1012.7
20260902123103 79 168 0.0 2.6 0.00 0.02 0.00 85 1012.6
20260902121601 79 209 0.0 3.5 0.00 0.02 0.00 86 1012.1
20260902120059 80 182 0.0 4.3 0.00 0.02 0.00 88 1012.2
20260902114554 80 169 1.7 5.2 0.00 0.02 0.00 92 1012.3
20260902113052 80 230 0.9 5.2 0.00 0.02 0.00 92 1011.9
20260902111548 80 257 0.0 3.5 0.00 0.02 0.00 92 1011.8
20260902110046 80 259 0.0 3.5 0.00 0.02 0.00 92 1011.8
20260902104612 80 229 0.0 3.5 0.00 0.02 0.00 92 1011.9
20260902103044 80 260 0.0 2.6 0.00 0.02 0.00 91 1012.0
20260902101544 80 173 0.9 7.8 0.00 0.02 0.00 92 1011.8
20260902100105 80 171 0.9 4.3 0.00 0.02 0.00 91 1011.6
20260902094543 80 240 0.0 2.6 0.00 0.02 0.00 91 1011.6
20260902093042 80 175 0.9 4.3 0.00 0.02 0.00 91 1011.7
20260902091542 80 223 0.0 2.6 0.00 0.02 0.00 91 1011.5
20260902090043 80 187 0.0 2.6 0.00 0.02 0.00 91 1011.4
20260902084539 80 225 0.0 2.6 0.00 0.02 0.00 90 1011.5
20260902083041 80 226 0.0 3.5 0.00 0.02 0.00 90 1011.5
20260902081558 81 243 1.7 5.2 0.00 0.02 0.00 90 1011.5